| time (UTC) | temp F | wind direction | speed MPH | gust MPH | rain 1hr in | rain 24hr in | rain mn in | humidity % | barometer mb |
| 20260831233040 | 79 | 102 | 0.0 | 0.0 | 0.00 | 0.12 | 0.12 | 80 | 1008.8 |
| 20260831231541 | 79 | 112 | 0.0 | 0.0 | 0.00 | 0.12 | 0.12 | 80 | 1008.6 |
| 20260831230058 | 80 | 113 | 0.0 | 2.0 | 0.00 | 0.12 | 0.12 | 79 | 1009.0 |
| 20260831224540 | 81 | 118 | 0.0 | 0.0 | 0.00 | 0.12 | 0.12 | 77 | 1009.0 |
| 20260831223040 | 81 | 119 | 0.0 | 0.0 | 0.00 | 0.12 | 0.12 | 76 | 1008.6 |
| 20260831221545 | 81 | 121 | 0.0 | 3.0 | 0.00 | 0.12 | 0.12 | 76 | 1008.8 |
| 20260831220039 | 81 | 47 | 0.0 | 4.0 | 0.00 | 0.12 | 0.12 | 77 | 1008.8 |
| 20260831214538 | 81 | 70 | 0.0 | 2.0 | 0.00 | 0.12 | 0.12 | 77 | 1008.7 |
| 20260831213038 | 80 | 15 | 0.0 | 3.0 | 0.00 | 0.12 | 0.12 | 81 | 1008.3 |
| 20260831211539 | 80 | 63 | 2.0 | 6.0 | 0.00 | 0.12 | 0.12 | 81 | 1008.2 |
| 20260831210036 | 81 | 40 | 0.0 | 2.0 | 0.00 | 0.12 | 0.12 | 79 | 1008.0 |
| 20260831204537 | 82 | 25 | 0.0 | 2.0 | 0.00 | 0.12 | 0.12 | 78 | 1008.0 |
| 20260831203041 | 82 | 8 | 1.0 | 5.0 | 0.00 | 0.12 | 0.12 | 80 | 1007.9 |
| 20260831201537 | 82 | 307 | 5.0 | 9.0 | 0.00 | 0.12 | 0.12 | 81 | 1007.9 |
| 20260831200036 | 80 | 320 | 2.0 | 4.0 | 0.00 | 0.12 | 0.12 | 83 | 1008.0 |
| 20260831194603 | 79 | 341 | 2.0 | 6.0 | 0.00 | 0.12 | 0.12 | 84 | 1008.0 |
| 20260831193030 | 80 | 314 | 3.0 | 9.0 | 0.00 | 0.12 | 0.12 | 82 | 1007.9 |
| 20260831191529 | 81 | 205 | 1.0 | 5.0 | 0.00 | 0.12 | 0.12 | 80 | 1008.0 |
| 20260831190027 | 81 | 227 | 3.0 | 5.0 | 0.00 | 0.12 | 0.12 | 81 | 1007.8 |
| 20260831184538 | 79 | 212 | 1.0 | 8.0 | 0.00 | 0.12 | 0.12 | 85 | 1008.0 |
| 20260831183018 | 78 | 210 | 0.0 | 4.0 | 0.00 | 0.12 | 0.12 | 89 | 1008.3 |
| 20260831181521 | 78 | 207 | 0.0 | 3.0 | 0.00 | 0.12 | 0.12 | 89 | 1008.4 |
| 20260831180012 | 77 | 207 | 0.0 | 3.0 | 0.00 | 0.12 | 0.12 | 90 | 1008.5 |
| 20260831174511 | 77 | 212 | 0.0 | 5.0 | 0.00 | 0.12 | 0.12 | 91 | 1008.4 |
| 20260831173006 | 77 | 216 | 3.0 | 7.0 | 0.00 | 0.12 | 0.12 | 91 | 1008.3 |
| 20260831171505 | 76 | 202 | 0.0 | 6.0 | 0.00 | 0.12 | 0.12 | 93 | 1008.3 |
| 20260831170003 | 76 | 279 | 0.0 | 2.0 | 0.00 | 0.12 | 0.12 | 94 | 1008.2 |
| 20260831164501 | 75 | 279 | 1.0 | 3.0 | 0.00 | 0.12 | 0.12 | 95 | 1008.2 |
| 20260831163059 | 75 | 279 | 0.0 | 0.0 | 0.00 | 0.12 | 0.12 | 96 | 1008.2 |
| 20260831161602 | 74 | 279 | 0.0 | 0.0 | 0.00 | 0.12 | 0.12 | 97 | 1008.1 |
| 20260831160055 | 74 | 279 | 0.0 | 0.0 | 0.00 | 0.12 | 0.12 | 97 | 1008.2 |
| 20260831154600 | 73 | 279 | 0.0 | 0.0 | 0.00 | 0.12 | 0.12 | 97 | 1008.0 |
| 20260831153050 | 73 | 279 | 0.0 | 0.0 | 0.00 | 0.12 | 0.12 | 98 | 1007.9 |
| 20260831151548 | 73 | 279 | 0.0 | 0.0 | 0.00 | 0.12 | 0.12 | 98 | 1007.6 |
| 20260831150045 | 72 | 279 | 0.0 | 0.0 | 0.00 | 0.12 | 0.12 | 98 | 1007.6 |
| 20260831144543 | 72 | 279 | 0.0 | 0.0 | 0.00 | 0.12 | 0.12 | 98 | 1007.6 |
| 20260831143043 | 71 | 279 | 0.0 | 0.0 | 0.00 | 0.12 | 0.12 | 98 | 1007.6 |
| 20260831141541 | 71 | 279 | 0.0 | 0.0 | 0.00 | 0.12 | 0.12 | 98 | 1007.4 |
| 20260831140039 | 71 | 279 | 0.0 | 0.0 | 0.00 | 0.12 | 0.12 | 98 | 1007.3 |
| 20260831134539 | 71 | 279 | 0.0 | 3.0 | 0.00 | 0.12 | 0.12 | 98 | 1007.5 |
| 20260831133039 | 71 | 19 | 0.0 | 2.0 | 0.00 | 0.12 | 0.12 | 98 | 1007.3 |
| 20260831131537 | 70 | 19 | 0.0 | 1.0 | 0.00 | 0.12 | 0.12 | 98 | 1006.8 |
| 20260831130032 | 69 | 19 | 0.0 | 1.0 | 0.01 | 0.12 | 0.12 | 98 | 1006.9 |
| 20260831124534 | 67 | 19 | 0.0 | 0.0 | 0.07 | 0.12 | 0.12 | 98 | 1007.1 |
| 20260831123028 | 67 | 19 | 0.0 | 1.0 | 0.07 | 0.12 | 0.12 | 97 | 1007.5 |
| 20260831121527 | 67 | 19 | 0.0 | 3.0 | 0.07 | 0.12 | 0.12 | 97 | 1007.2 |
| 20260831120029 | 67 | 27 | 1.0 | 3.0 | 0.06 | 0.11 | 0.11 | 97 | 1007.0 |
| 20260831114523 | 66 | 29 | 0.0 | 1.0 | 0.00 | 0.05 | 0.05 | 97 | 1007.1 |
| 20260831113022 | 66 | 29 | 0.0 | 1.0 | 0.00 | 0.05 | 0.05 | 97 | 1007.1 |
| 20260831111529 | 66 | 29 | 0.0 | 0.0 | 0.00 | 0.05 | 0.05 | 97 | 1007.2 |
| 20260831110022 | 66 | 29 | 0.0 | 0.0 | 0.00 | 0.05 | 0.05 | 97 | 1007.4 |
| 20260831104531 | 66 | 29 | 0.0 | 0.0 | 0.00 | 0.05 | 0.05 | 97 | 1007.2 |
| 20260831103040 | 66 | 29 | 0.0 | 0.0 | 0.00 | 0.05 | 0.05 | 97 | 1007.2 |
| 20260831101520 | 65 | 29 | 0.0 | 1.0 | 0.00 | 0.05 | 0.05 | 97 | 1007.5 |
| 20260831100033 | 65 | 29 | 0.0 | 0.0 | 0.00 | 0.05 | 0.05 | 97 | 1007.5 |
| 20260831094527 | 65 | 29 | 0.0 | 0.0 | 0.00 | 0.05 | 0.05 | 96 | 1007.2 |
| 20260831093016 | 66 | 29 | 0.0 | 0.0 | 0.00 | 0.05 | 0.05 | 96 | 1007.3 |
| 20260831091517 | 66 | 29 | 0.0 | 0.0 | 0.00 | 0.05 | 0.05 | 96 | 1007.4 |
| 20260831090015 | 66 | 29 | 0.0 | 0.0 | 0.00 | 0.05 | 0.05 | 96 | 1007.3 |
| 20260831084514 | 66 | 29 | 0.0 | 0.0 | 0.00 | 0.05 | 0.05 | 96 | 1007.2 |
| 20260831083020 | 67 | 29 | 0.0 | 0.0 | 0.00 | 0.05 | 0.05 | 96 | 1007.2 |
| 20260831081509 | 67 | 29 | 0.0 | 0.0 | 0.00 | 0.05 | 0.05 | 96 | 1007.5 |
| 20260831080020 | 68 | 29 | 0.0 | 0.0 | 0.00 | 0.05 | 0.05 | 96 | 1007.7 |
| 20260831074505 | 68 | 29 | 0.0 | 0.0 | 0.00 | 0.05 | 0.05 | 96 | 1007.9 |
| 20260831073009 | 68 | 29 | 0.0 | 2.0 | 0.00 | 0.05 | 0.05 | 96 | 1008.0 |
| 20260831071602 | 68 | 29 | 0.0 | 1.0 | 0.00 | 0.05 | 0.05 | 96 | 1008.5 |
| 20260831070057 | 68 | 29 | 0.0 | 2.0 | 0.00 | 0.05 | 0.05 | 96 | 1009.0 |
| 20260831064554 | 68 | 14 | 0.0 | 2.0 | 0.00 | 0.05 | 0.05 | 96 | 1009.3 |
| 20260831063054 | 68 | 14 | 0.0 | 3.0 | 0.00 | 0.05 | 0.05 | 95 | 1009.7 |
| 20260831061553 | 68 | 70 | 0.0 | 2.0 | 0.02 | 0.05 | 0.05 | 95 | 1009.5 |
| 20260831060051 | 68 | 70 | 0.0 | 0.0 | 0.05 | 0.05 | 0.05 | 94 | 1009.5 |
| 20260831054551 | 69 | 70 | 0.0 | 0.0 | 0.05 | 0.05 | 0.05 | 94 | 1009.4 |
| 20260831053047 | 69 | 70 | 0.0 | 0.0 | 0.05 | 0.05 | 0.05 | 94 | 1009.8 |
| 20260831051546 | 69 | 70 | 0.0 | 3.0 | 0.02 | 0.02 | 0.02 | 94 | 1009.9 |
| 20260831050042 | 69 | 69 | 0.0 | 2.0 | 0.00 | 0.00 | 0.00 | 94 | 1010.2 |
| 20260831044541 | 69 | 90 | 0.0 | 2.0 | 0.00 | 0.00 | 0.00 | 94 | 1009.9 |
| 20260831043040 | 69 | 90 | 0.0 | 2.0 | 0.00 | 0.00 | 0.00 | 94 | 1009.9 |
| 20260831041554 | 69 | 90 | 0.0 | 2.0 | 0.00 | 0.00 | 0.00 | 93 | 1010.2 |
| 20260831040038 | 69 | 90 | 0.0 | 2.0 | 0.00 | 0.00 | 0.00 | 93 | 1010.3 |
| 20260831034539 | 69 | 90 | 0.0 | 0.0 | 0.00 | 0.00 | 0.00 | 93 | 1010.4 |
| 20260831033037 | 69 | 90 | 0.0 | 1.0 | 0.00 | 0.00 | 0.00 | 92 | 1010.6 |
| 20260831031543 | 69 | 90 | 0.0 | 0.0 | 0.00 | 0.00 | 0.00 | 92 | 1010.5 |
| 20260831030036 | 69 | 90 | 0.0 | 2.0 | 0.00 | 0.00 | 0.00 | 92 | 1010.4 |
| 20260831024544 | 69 | 90 | 0.0 | 1.0 | 0.00 | 0.00 | 0.00 | 92 | 1010.5 |
| 20260831023035 | 69 | 90 | 1.0 | 4.0 | 0.00 | 0.00 | 0.00 | 92 | 1010.6 |
| 20260831021537 | 69 | 83 | 1.0 | 4.0 | 0.00 | 0.00 | 0.00 | 92 | 1010.6 |
| 20260831020036 | 69 | 88 | 1.0 | 7.0 | 0.00 | 0.00 | 0.00 | 92 | 1010.5 |
| 20260831014534 | 69 | 91 | 3.0 | 8.0 | 0.00 | 0.00 | 0.00 | 92 | 1010.5 |
| 20260831013035 | 69 | 62 | 4.0 | 11.0 | 0.00 | 0.00 | 0.00 | 92 | 1010.4 |
| 20260831011533 | 69 | 87 | 3.0 | 9.0 | 0.00 | 0.00 | 0.00 | 92 | 1010.5 |
| 20260831010037 | 69 | 61 | 4.0 | 9.0 | 0.00 | 0.00 | 0.00 | 92 | 1010.5 |
| 20260831004533 | 69 | 84 | 2.0 | 7.0 | 0.00 | 0.00 | 0.00 | 92 | 1010.6 |
| 20260831003035 | 69 | 68 | 5.0 | 10.0 | 0.00 | 0.00 | 0.00 | 92 | 1010.4 |
| 20260831001531 | 69 | 79 | 4.0 | 9.0 | 0.00 | 0.00 | 0.00 | 92 | 1010.4 |
| 20260831000030 | 69 | 72 | 3.0 | 14.0 | 0.00 | 0.00 | 0.00 | 92 | 1010.5 |
| 20260830234541 | 69 | 61 | 3.0 | 11.0 | 0.00 | 0.00 | 0.00 | 91 | 1010.7 |